Location: Albuquerque Trailhead
(34.7934°N, 106.3736°W)
Time: 02:51:17
(UTC+00:00)

BlueWalker 3 - Pass Details

Date: 10 December 2022
Orbit: 499 x 517 km, 53.2° (Epoch: 07 February)

Event Time Altitude Azimuth Distance (km) Brightness Sun altitude
Rises 01:03:52 0° 325° (NW) 2,622 5.8 -14.0°
Reaches altitude 10° 01:06:24 10° 339° (NNW) 1,729 4.7 -14.4°
Maximum altitude 01:09:36 24° 35° (NE) 1,088 3.2 -15.1°
Enters shadow 01:09:48 24° 40° (NE) 1,090 3.1 -15.1°
